TIANWANG 1B (TW-1B)
1 40927U 15051C   19180.35561635  .00007191  00000-0  11156-3 0  9992
2 40927  97.1377 225.8642 0007509   0.1618  58.8835 15.54268122211674
TIANWANG 1A (TW-1A)
1 40928U 15051D   19180.35703704  .00002108  00000-0  53347-4 0  9990
2 40928  97.1445 211.4268 0012398  42.5672 146.5542 15.40804223210816
LAPAN A2
1 40931U 15052B   19179.75066188  .00000651  00000-0  15188-5 0  9998
2 40931   6.0069 344.9206 0014241 295.9110  63.9836 14.76609491202755
LQSAT
1 40958U 15057A   19179.61687097 -.00000022 +00000-0 +43070-5 0  9999
2 40958 097.8982 248.5457 0017545 205.4449 154.5897 14.73082197200278
CHUBUSAT 2
1 41338U 16012B   19180.07156228  .00000205  00000-0  91893-5 0  9991
2 41338  31.0037  78.8036 0013916 206.4235 153.5692 15.00153742184472
CHUBUSAT 3
1 41339U 16012C   19180.10636232  .00000208  00000-0  93341-5 0  9997
2 41339  31.0103  76.6629 0013738 214.4287 145.5457 15.00329321184477
OUFTI-1
1 41458U 16025C   19179.68903474 +.00000078 +00000-0 +87266-5 0  9993
2 41458 098.1019 267.0392 0165563 323.9388 035.0758 15.05819552174071
E-STAR-2
1 41459U 16025D   19180.37250454  .00000681  00000-0  39408-4 0  9999
2 41459  98.1021 267.4152 0166783 322.8470  36.1310 15.05464000174157
AAUSAT 4
1 41460U 16025E   19180.20215942 -.00000037  00000-0  28919-5 0  9998
2 41460  98.0953 268.5018 0156992 316.0767  42.8190 15.07336508174254
NUSAT 1
1 41557U 16033B   19180.46195387  .00000677  00000-0  28140-4 0  9996
2 41557  97.4181 267.8990 0012156 258.2931 101.6944 15.27217481171732
BEESAT 4
1 41619U 16040W   19179.63230195  .00000764  00000-0  35269-4 0  9994
2 41619  97.3669 241.6708 0011083 357.9192   2.1997 15.23133449155374
PRATHAM
1 41783U 16059A   19179.65326882  .00000011  00000-0  11451-4 0  9999
2 41783  98.0667 239.0151 0033358 355.2021   4.8856 14.62996754147008
ALSAT 1N
1 41789U 16059G   19180.18012147  .00000035  00000-0  15817-4 0  9997
2 41789  98.0684 241.5465 0028070 343.4507  16.5776 14.64246365147180
NAYIF 1
1 42017U 17008BX  19179.86447081 +.00000881 +00000-0 +37580-4 0  9999
2 42017 097.4026 246.8539 0007654 124.9329 235.2629 15.25535226131474
MAX VALIER SAT
1 42778U 17036P   19180.11351873  .00000534  00000-0  26364-4 0  9990
2 42778  97.3535 237.5505 0012393 179.5498 180.5752 15.22019055111821
